Terug naar catalogus

ONEWEB-0409

ActiefCommunicatiePO
NORAD 50488·PAYLOAD·🇬🇧 United Kingdom

Gelanceerd Dec 27, 2021 vanaf Baikonur Cosmodrome

Loading…

Volgende Passages (komende 24 uur)

TLE

VersSource: CelesTrak SupGP

Epoch: Sep 14, 2026, 14:52 UTC

1 50488C 21132V   26257.61998102  .00002946  00000+0  83224-2 0  2570
2 50488  87.8974   3.2793 0001744 111.3555 357.0170 13.11412361    18

Volg ONEWEB-0409 in realtime met AllMySat

Download on the App Store